Location: ?ern� Novina
(50.6762°N, 14.8696°E)
Time: 15:41:36
(UTC+00:00)

Cosmos 2237 - Pass Details

Date: 03 March 2021
Orbit: 845 x 857 km, 70.9° (Epoch: 12 April)

Event Time Altitude Azimuth Distance (km) Brightness Sun altitude
Rises 18:07:48 0° 199° (SSW) 3,410 7.5 -13.8°
Reaches altitude 10° 18:10:15 10° 197° (SSW) 2,480 6.8 -14.2°
Maximum altitude 18:15:55 70° 115° (ESE) 913 4.2 -15.1°
Drops below altitude 10° 18:21:37 10° 33° (NNE) 2,501 6.4 -16.0°
Sets 18:24:06 0° 32° (NNE) 3,442 7.2 -16.4°
